View from above orbital plane
|
View from above satellite
|
Ground track
|
The orbit data is extracted from the following two-line orbital elements,
1 42775U 17036L 21023.69496932 .00000933 00000-0 43384-4 0 9999
2 42775 97.2696 74.8722 0012716 331.2329 28.8205 15.22289818199174
Epoch (UTC): | 23 January 2021 16:40:45 |
Eccentricity: | 0.0012716 |
inclination: | 97.2696° |
perigee height: | 490 km |
apogee height: | 507 km |
right ascension of ascending node: | 74.8722° |
argument of perigee: | 331.2329° |
revolutions per day: | 15.22289818 |
mean anomaly at epoch: | 28.8205° |
orbit number at epoch: | 19917 |
The dashed part of the orbit path shows where the satellite is in the earth's shadow,
|
|